Weather History for KSHD - May, 2013

Change the Weather History Date:

Sunday, May 5, 2013

  Actual Average Record
Temperature  
Mean Temperature 50 °F -  
Max Temperature 64 °F 73 °F 86 °F (2001)
Min Temperature 37 °F 48 °F 35 °F (2011)
Degree Days  
Heating Degree Days 14    
Moisture  
Dew Point 38 °F    
Average Humidity 59    
Maximum Humidity 87    
Minimum Humidity 35    
Precipitation  
Precipitation 0.00 in - - ()
Sea Level Pressure  
Sea Level Pressure 30.17 in    
Wind  
Wind Speed 4 mph (East)    
Max Wind Speed 10 mph    
Max Gust Speed -    
Visibility 10 miles    
Events      
Averages and records for this station are not official NWS values.
T = Trace of Precipitation, MM = Missing Value Source: NWS Daily Summary

Daily Weather History Graph

Daily Weather History Graph

Search for Another Location

Airport or City:

Trip Planner

Search our weather history database for the weather conditions in past years. The results will help you decide how hot, cold, wet, or windy it might be!

Date:

Astronomy

May. 05, 2013 Rise Set
Actual Time 6:14 AM EDT 8:10 PM EDT
Civil Twilight 5:45 AM EDT 8:39 PM EDT
Nautical Twilight 5:10 AM EDT 9:14 PM EDT
Astronomical Twilight 4:32 AM EDT 9:52 PM EDT
Moon 3:40 AM EDT (5/5) 4:11 PM EDT (5/5)
Length of Visible Light 14h 54m
Length of Day
13h 56m
Waning Crescent, 18% of the Moon is Illuminated
May 5
Waning Crescent
May 9
New
May 18
First Quarter
May 25
Full
May 31
Last Quarter

Hourly Weather History & Observations

Time (EDT) Temp. Windchill Dew Point Humidity Pressure Visibility Wind Dir Wind Speed Gust Speed Precip Events Conditions
12:15 AM 53.6 °F - 42.4 °F 66% 30.22 in 10.0 mi ENE 3.5 mph - N/A   Clear
12:35 AM 52.5 °F - 40.5 °F 64% 30.22 in 10.0 mi ENE 6.9 mph - N/A   Clear
12:55 AM 52.0 °F - 38.8 °F 61% 30.22 in 10.0 mi Calm Calm - N/A   Clear
1:15 AM 49.1 °F - 36.9 °F 63% 30.21 in 10.0 mi NE 6.9 mph - N/A   Clear
1:35 AM 51.1 °F - 35.2 °F 55% 30.20 in 10.0 mi NNE 5.8 mph - N/A   Clear
1:55 AM 50.5 °F - 37.4 °F 61% 30.20 in 10.0 mi North 4.6 mph - N/A   Clear
2:15 AM 49.6 °F - 38.5 °F 65% 30.20 in 10.0 mi North 3.5 mph - N/A   Clear
2:35 AM 45.7 °F 43.4 °F 37.9 °F 74% 30.19 in 10.0 mi NNE 4.6 mph - N/A   Clear
2:55 AM 44.4 °F - 37.4 °F 76% 30.18 in 10.0 mi Calm Calm - N/A   Clear
3:15 AM 43.7 °F - 37.6 °F 79% 30.18 in 10.0 mi Calm Calm - N/A   Clear
3:35 AM 44.1 °F - 36.7 °F 75% 30.17 in 10.0 mi Calm Calm - N/A   Clear
3:55 AM 40.8 °F - 36.1 °F 83% 30.17 in 10.0 mi Calm Calm - N/A   Clear
4:15 AM 41.4 °F - 35.8 °F 81% 30.17 in 10.0 mi Calm Calm - N/A   Clear
4:35 AM 39.0 °F - 35.1 °F 86% 30.16 in 10.0 mi Calm Calm - N/A   Clear
4:55 AM 40.8 °F - 35.6 °F 82% 30.16 in 10.0 mi Calm Calm - N/A   Clear
5:15 AM 37.9 °F - 34.3 °F 87% 30.16 in 10.0 mi Calm Calm - N/A   Clear
5:35 AM 40.6 °F - 35.4 °F 82% 30.16 in 10.0 mi Calm Calm - N/A   Clear
5:55 AM 43.2 °F - 36.1 °F 76% 30.16 in 10.0 mi Calm Calm - N/A   Clear
6:15 AM 41.4 °F - 36.0 °F 81% 30.16 in 10.0 mi Calm Calm - N/A   Clear
6:55 AM 38.3 °F - 34.2 °F 85% 30.19 in 10.0 mi Calm Calm - N/A   Clear
7:15 AM 40.3 °F - 36.0 °F 85% 30.19 in 10.0 mi Calm Calm - N/A   Clear
7:35 AM 42.6 °F - 38.1 °F 84% 30.20 in 10.0 mi Calm Calm - N/A   Clear
7:55 AM 45.7 °F - 38.5 °F 76% 30.20 in 10.0 mi Calm Calm - N/A   Clear
8:15 AM 47.3 °F - 37.2 °F 68% 30.20 in 10.0 mi Calm Calm - N/A   Clear
8:35 AM 48.0 °F - 37.4 °F 67% 30.20 in 10.0 mi Calm Calm - N/A   Clear
8:55 AM 49.3 °F - 36.5 °F 61% 30.20 in 10.0 mi Calm Calm - N/A   Clear
9:15 AM 50.5 °F - 37.2 °F 60% 30.20 in 10.0 mi South 3.5 mph - N/A   Clear
9:35 AM 51.6 °F - 36.7 °F 57% 30.20 in 10.0 mi South 4.6 mph - N/A   Clear
9:55 AM 51.6 °F - 36.7 °F 57% 30.20 in 10.0 mi SSE 5.8 mph - N/A   Clear
10:15 AM 53.1 °F - 36.5 °F 53% 30.20 in 10.0 mi East 5.8 mph - N/A   Clear
10:35 AM 52.9 °F - 35.6 °F 52% 30.20 in 10.0 mi NE 3.5 mph - N/A   Clear
10:55 AM 54.5 °F - 36.5 °F 51% 30.19 in 10.0 mi ENE 5.8 mph - N/A   Clear
11:15 AM 54.7 °F - 36.5 °F 50% 30.19 in 10.0 mi Calm Calm - N/A   Clear
11:35 AM 55.8 °F - 35.6 °F 47% 30.19 in 10.0 mi ENE 6.9 mph - N/A   Clear
11:55 AM 57.2 °F - 37.0 °F 47% 30.19 in 10.0 mi East 6.9 mph - N/A   Clear
12:15 PM 56.5 °F - 36.5 °F 47% 30.18 in 10.0 mi SE 6.9 mph - N/A   Clear
12:35 PM 57.4 °F - 36.9 °F 46% 30.18 in 10.0 mi SSE 6.9 mph - N/A   Clear
12:55 PM 57.6 °F - 36.9 °F 46% 30.18 in 10.0 mi SW 3.5 mph - N/A   Clear
1:15 PM 59.4 °F - 36.5 °F 43% 30.17 in 10.0 mi ENE 5.8 mph - N/A   Clear
1:35 PM 60.1 °F - 36.7 °F 42% 30.17 in 10.0 mi Calm Calm - N/A   Clear
1:55 PM 61.2 °F - 35.2 °F 38% 30.16 in 10.0 mi Calm Calm - N/A   Clear
2:15 PM 61.9 °F - 36.1 °F 38% 30.15 in 10.0 mi East 5.8 mph - N/A   Clear
2:35 PM 62.8 °F - 37.0 °F 38% 30.14 in 10.0 mi ESE 9.2 mph - N/A   Clear
2:55 PM 63.7 °F - 37.0 °F 37% 30.13 in 10.0 mi ESE 9.2 mph - N/A   Clear
3:15 PM 63.1 °F - 35.1 °F 35% 30.13 in 10.0 mi East 6.9 mph - N/A   Clear
3:35 PM 63.7 °F - 36.9 °F 37% 30.13 in 10.0 mi ENE 6.9 mph - N/A   Clear
4:15 PM 64.8 °F - 37.6 °F 37% 30.12 in 10.0 mi East 3.5 mph - N/A   Clear
4:35 PM 63.3 °F - 40.1 °F 43% 30.12 in 10.0 mi SSE 8.1 mph - N/A   Clear
4:55 PM 63.0 °F - 40.3 °F 43% 30.12 in 10.0 mi ESE 5.8 mph - N/A   Clear
5:15 PM 62.8 °F - 39.6 °F 42% 30.11 in 10.0 mi East 6.9 mph - N/A   Clear
5:35 PM 63.0 °F - 40.3 °F 43% 30.12 in 10.0 mi ESE 6.9 mph - N/A   Clear
6:15 PM 62.8 °F - 40.1 °F 43% 30.12 in 10.0 mi East 10.4 mph - N/A   Clear
6:35 PM 60.4 °F - 40.5 °F 48% 30.11 in 10.0 mi East 6.9 mph - N/A   Clear
6:55 PM 60.1 °F - 40.8 °F 49% 30.11 in 10.0 mi ESE 10.4 mph - N/A   Scattered Clouds
7:15 PM 59.7 °F - 40.6 °F 49% 30.11 in 10.0 mi East 9.2 mph - N/A   Mostly Cloudy
7:35 PM 59.5 °F - 40.6 °F 50% 30.12 in 10.0 mi ESE 10.4 mph - N/A   Overcast
7:55 PM 59.2 °F - 41.7 °F 52% 30.13 in 10.0 mi ESE 4.6 mph - N/A   Overcast
8:15 PM 59.0 °F - 41.9 °F 53% 30.13 in 10.0 mi East 4.6 mph - N/A   Overcast
8:35 PM 59.0 °F - 41.9 °F 53% 30.13 in 10.0 mi East 5.8 mph - N/A   Overcast
8:55 PM 58.6 °F - 41.7 °F 53% 30.13 in 10.0 mi East 8.1 mph - N/A   Overcast
9:15 PM 58.3 °F - 42.3 °F 55% 30.13 in 10.0 mi East 8.1 mph - N/A   Overcast
9:35 PM 57.9 °F - 43.0 °F 58% 30.14 in 10.0 mi East 5.8 mph - N/A   Overcast
9:55 PM 57.4 °F - 43.3 °F 59% 30.15 in 10.0 mi East 5.8 mph - N/A   Overcast
10:15 PM 57.2 °F - 43.5 °F 60% 30.15 in 10.0 mi ESE 5.8 mph - N/A   Overcast
10:35 PM 57.0 °F - 43.9 °F 61% 30.16 in 10.0 mi ESE 6.9 mph - N/A   Overcast
10:55 PM 56.5 °F - 44.6 °F 64% 30.16 in 10.0 mi East 10.4 mph - N/A   Overcast
11:15 PM 56.3 °F - 45.0 °F 66% 30.16 in 10.0 mi East 9.2 mph - N/A   Overcast
11:35 PM 55.8 °F - 45.3 °F 68% 30.16 in 10.0 mi East 9.2 mph - N/A   Overcast
11:55 PM 55.4 °F - 45.1 °F 68% 30.15 in 10.0 mi East 9.2 mph - N/A   Overcast